KA4YMY Weather Reports


Display with metric or nautical units.
time (UTC)temp
F
wind
direction
speed
MPH
gust
MPH
rain 1hr
in
rain 24hr
in
rain mn
in
humidity
%
barometer
mb
20260508154516 70 0 1.0 2.0 0.00 0.16 0.01 50 1017.7
20260508153516 69 135 1.0 3.0 0.00 0.16 0.01 46 1017.8
20260508152516 68 135 2.0 6.0 0.00 0.16 0.01 51 1017.9
20260508151517 68 23 1.0 3.0 0.00 0.16 0.01 53 1017.8
20260508150516 68 158 2.0 6.0 0.00 0.16 0.01 50 1017.7
20260508145516 67 23 1.0 3.0 0.00 0.16 0.01 55 1017.7
20260508144516 67 23 1.0 5.0 0.00 0.16 0.01 55 1017.9
20260508143516 67 158 2.0 5.0 0.00 0.17 0.01 58 1017.9
20260508142516 66 158 2.0 5.0 0.00 0.18 0.01 54 1018.0
20260508141516 66 135 2.0 4.0 0.00 0.18 0.01 54 1018.0
20260508140516 65 158 1.0 4.0 0.00 0.19 0.01 63 1018.1
20260508135516 64 0 2.0 4.0 0.00 0.19 0.01 62 1018.0
20260508134516 63 135 1.0 4.0 0.00 0.20 0.01 66 1017.9
20260508133516 62 23 1.0 3.0 0.00 0.20 0.01 69 1017.8
20260508132516 61 23 1.0 3.0 0.00 0.20 0.01 74 1017.7
20260508131516 60 0 2.0 4.0 0.00 0.20 0.01 72 1017.6
20260508130516 58 45 1.0 2.0 0.00 0.20 0.01 85 1017.7
20260508125516 57 203 1.0 3.0 0.01 0.20 0.01 91 1017.5
20260508124516 57 113 1.0 3.0 0.01 0.20 0.01 94 1017.4
20260508123516 57 0.0 2.0 0.01 0.20 0.01 97 1017.3
20260508122516 57 0.0 0.0 0.01 0.20 0.01 98 1017.3
20260508121516 56 0.0 0.0 0.01 0.21 0.01 98 1017.1
20260508120516 54 0.0 0.0 0.01 0.22 0.01 98 1016.9
20260508115516 52 0.0 2.0 0.00 0.24 0.00 97 1016.7
20260508114516 51 0.0 1.0 0.00 0.27 0.00 97 1016.6
20260508113516 50 0.0 1.0 0.00 0.27 0.00 97 1016.3
20260508112516 49 0.0 1.0 0.00 0.27 0.00 97 1016.2
20260508111516 49 0.0 0.0 0.00 0.28 0.00 97 1016.0
20260508110516 49 0.0 0.0 0.00 0.28 0.00 96 1015.8
20260508105516 49 0.0 0.0 0.00 0.29 0.00 96 1015.6
20260508104516 49 0.0 0.0 0.00 0.31 0.00 96 1015.6
20260508103516 49 0.0 0.0 0.00 0.31 0.00 96 1015.8
20260508102516 49 0.0 0.0 0.00 0.31 0.00 96 1015.4
20260508101516 49 0.0 0.0 0.00 0.31 0.00 96 1015.3
20260508100516 49 0.0 0.0 0.00 0.31 0.00 96 1015.2
20260508095516 49 0.0 0.0 0.00 0.31 0.00 96 1015.1
20260508094516 50 0.0 0.0 0.00 0.31 0.00 96 1015.1
20260508093516 50 0.0 0.0 0.00 0.31 0.00 96 1015.0
20260508092516 50 0.0 1.0 0.00 0.31 0.00 96 1015.1
20260508091516 50 0.0 0.0 0.00 0.32 0.00 96 1014.8
20260508090516 50 0.0 0.0 0.00 0.32 0.00 96 1014.9
20260508085516 50 0.0 0.0 0.00 0.32 0.00 96 1014.8
20260508084516 50 0.0 0.0 0.00 0.32 0.00 95 1014.8
20260508083516 50 0.0 0.0 0.00 0.33 0.00 95 1014.6
20260508082516 50 0.0 0.0 0.00 0.34 0.00 95 1014.5
20260508081516 51 0.0 0.0 0.00 0.34 0.00 95 1014.5
20260508080516 51 0.0 0.0 0.00 0.35 0.00 96 1014.3
20260508075516 51 0.0 0.0 0.00 0.37 0.00 95 1014.3
20260508074516 51 0.0 0.0 0.00 0.39 0.00 95 1014.3
20260508073516 52 0.0 0.0 0.00 0.40 0.00 96 1014.2
20260508072516 52 0.0 0.0 0.00 0.43 0.00 95 1014.1
20260508071515 52 0.0 0.0 0.00 0.45 0.00 96 1014.0
20260508070516 52 0.0 0.0 0.00 0.48 0.00 96 1014.0
20260508065516 53 0.0 0.0 0.00 0.51 0.00 96 1014.0
20260508064516 53 0.0 2.0 0.00 0.54 0.00 96 1013.9
20260508063516 53 0.0 0.0 0.00 0.57 0.00 96 1013.9
20260508062516 53 0.0 0.0 0.00 0.62 0.00 95 1013.9
20260508061515 53 0.0 1.0 0.00 0.66 0.00 95 1013.9
20260508060515 53 0.0 0.0 0.00 0.71 0.00 95 1013.9
20260508055515 54 0.0 0.0 0.00 0.75 0.00 95 1013.9
20260508054516 54 0.0 0.0 0.00 0.76 0.00 95 1013.9
20260508053515 54 0.0 0.0 0.00 0.87 0.00 94 1013.9
20260508052515 54 0.0 0.0 0.00 0.97 0.00 95 1013.8
20260508051515 55 0.0 0.0 0.00 0.97 0.00 94 1013.7
20260508050517 55 0.0 0.0 0.00 0.97 0.00 94 1013.7
20260508045518 55 0.0 0.0 0.00 0.97 0.00 94 1013.5
20260508044517 56 0.0 0.0 0.00 0.97 0.00 95 1013.5
20260508043517 56 0.0 1.0 0.00 0.97 0.00 95 1013.5
20260508042517 56 0.0 0.0 0.00 0.97 0.00 95 1013.3
20260508041517 56 0.0 1.0 0.00 0.98 0.00 95 1013.3
20260508040517 57 338 1.0 3.0 0.00 0.98 0.00 95 1013.2
20260508035517 57 0.0 1.0 0.00 0.98 0.98 94 1013.2
20260508034516 57 0.0 1.0 0.00 0.98 0.98 94 1013.3
20260508033517 57 0.0 0.0 0.00 0.98 0.98 94 1013.1
20260508032516 57 0.0 0.0 0.00 0.98 0.98 94 1013.1
20260508031517 58 0.0 0.0 0.00 1.00 0.98 94 1013.2
20260508030516 58 0.0 0.0 0.00 1.12 0.98 94 1013.1
20260508025516 58 0.0 0.0 0.00 1.18 0.98 94 1013.1
20260508024516 58 0.0 2.0 0.00 1.22 0.98 94 1012.8
20260508023516 58 0.0 0.0 0.00 1.24 0.98 94 1012.8
20260508022516 59 0.0 0.0 0.00 1.29 0.98 93 1012.7
20260508021517 59 0.0 0.0 0.00 1.32 0.98 93 1012.6
20260508020516 59 0.0 0.0 0.00 1.35 0.98 93 1012.4
20260508015517 59 0.0 0.0 0.00 1.35 0.98 93 1012.3
20260508014516 59 338 1.0 3.0 0.00 1.49 0.98 93 1012.1
20260508013516 59 0.0 1.0 0.00 1.51 0.98 93 1011.8
20260508012516 59 0.0 2.0 0.00 1.53 0.98 92 1011.7
20260508011516 60 113 1.0 3.0 0.00 1.58 0.98 92 1011.4
20260508010516 60 293 1.0 2.0 0.00 1.61 0.98 92 1011.3
20260508005516 60 0.0 3.0 0.00 1.63 0.98 92 1011.0
20260508004516 60 90 1.0 2.0 0.00 1.65 0.98 92 1011.1
20260508003516 60 0 1.0 3.0 0.00 1.67 0.98 92 1010.8
20260508002516 60 0 1.0 3.0 0.00 1.70 0.98 92 1010.3
20260508001516 60 338 2.0 6.0 0.00 1.75 0.98 92 1010.1
20260508000516 61 68 1.0 3.0 0.00 1.75 0.98 92 1010.1
20260507235516 61 0 2.0 4.0 0.00 1.78 0.98 92 1009.8
20260507234516 61 23 2.0 9.0 0.04 1.79 0.98 91 1009.5
20260507233516 61 135 1.0 3.0 0.13 1.79 0.98 91 1009.2
20260507232516 61 45 2.0 6.0 0.14 1.79 0.98 91 1008.8
20260507231516 61 0 4.0 11.0 0.14 1.79 0.98 90 1008.6
20260507230516 62 0 2.0 9.0 0.14 1.79 0.98 90 1008.9
20260507225516 63 0 3.0 9.0 0.14 1.79 0.98 89 1008.4
20260507224516 64 338 3.0 7.0 0.10 1.75 0.94 87 1008.3
20260507223516 65 0 4.0 9.0 0.01 1.66 0.85 82 1008.2
20260507222516 68 0 4.0 11.0 0.00 1.65 0.84 77 1007.8
20260507221516 73 0 4.0 9.0 0.00 1.65 0.84 71 1007.3
20260507220516 77 90 1.0 5.0 0.00 1.65 0.84 67 1007.1
20260507215516 77 113 1.0 5.0 0.00 1.65 0.84 68 1007.0
20260507214516 77 158 2.0 5.0 0.00 1.65 0.84 68 1006.8
20260507213516 77 158 1.0 5.0 0.00 1.65 0.84 67 1006.7
20260507212516 77 135 1.0 8.0 0.00 1.65 0.84 66 1006.5
20260507211516 77 158 2.0 8.0 0.00 1.65 0.84 68 1006.4
20260507210516 77 158 2.0 6.0 0.00 1.65 0.84 70 1006.6
20260507205516 77 158 1.0 5.0 0.00 1.65 0.84 69 1006.8
20260507204516 77 135 1.0 3.0 0.00 1.65 0.84 67 1006.6
20260507203516 77 158 1.0 3.0 0.00 1.65 0.84 67 1006.6
20260507202516 78 158 1.0 3.0 0.00 1.65 0.84 66 1006.4
20260507201516 78 135 1.0 3.0 0.00 1.65 0.84 68 1006.6
20260507200516 77 158 2.0 7.0 0.00 1.65 0.84 68 1006.8
20260507195516 77 158 2.0 9.0 0.00 1.65 0.84 67 1006.9
20260507194516 77 0.0 2.0 0.00 1.65 0.84 69 1007.1
20260507193516 77 158 1.0 5.0 0.00 1.65 0.84 70 1007.1
20260507192516 77 158 2.0 8.0 0.00 1.65 0.84 66 1007.5
20260507191516 78 158 1.0 6.0 0.00 1.65 0.84 67 1007.7
20260507190516 77 135 1.0 5.0 0.00 1.65 0.84 69 1007.8
20260507185516 77 135 1.0 4.0 0.00 1.65 0.84 71 1007.8
20260507184516 76 0.0 2.0 0.00 1.65 0.84 72 1007.8
20260507183516 75 158 2.0 7.0 0.00 1.65 0.84 74 1007.8
20260507182515 74 135 1.0 2.0 0.00 1.65 0.84 76 1007.8
20260507181516 73 113 1.0 3.0 0.00 1.65 0.84 80 1007.7
20260507180516 73 90 1.0 4.0 0.00 1.65 0.84 83 1007.6
20260507175515 72 113 1.0 3.0 0.00 1.65 0.84 87 1007.8
20260507174516 71 23 1.0 3.0 0.00 1.66 0.84 88 1008.0
20260507173515 71 45 1.0 4.0 0.01 1.69 0.84 90 1008.3
20260507172515 70 45 1.0 5.0 0.01 1.71 0.84 93 1008.5
20260507171517 69 0.0 3.0 0.01 1.71 0.84 93 1008.5
20260507170517 68 0.0 1.0 0.01 1.71 0.84 96 1008.2
20260507165517 68 0.0 2.0 0.01 1.71 0.84 95 1008.2
20260507164517 67 0.0 1.0 0.01 1.71 0.84 95 1008.8
20260507163517 68 0.0 2.0 0.00 1.76 0.83 95 1008.6
20260507162517 68 0.0 2.0 0.00 1.76 0.83 97 1008.8
20260507161517 68 113 1.0 3.0 0.00 1.76 0.83 98 1009.0
20260507160517 68 90 1.0 3.0 0.00 1.76 0.83 98 1009.2
20260507155517 67 0.0 1.0 0.00 1.76 0.83 98 1009.1